Juneau, AK

3:43 PM AKST on January 18, 2017 (GMT -0900)
Juneau International

Weather History for PAJN - July, 2013

Change the Weather History Date:

Monday, July 1, 2013

  Actual Average Record
Temperature  
Mean Temperature 57 °F 56 °F  
Max Temperature 60 °F 63 °F 77 °F (1989)
Min Temperature 54 °F 49 °F 41 °F (1950)
Degree Days  
Heating Degree Days 8 9  
Month to date heating degree days 8 9  
Since 1 June heating degree days 222 324  
Since 1 July heating degree days 8 9  
Cooling Degree Days 0 0  
Month to date cooling degree days 0 0  
Year to date cooling degree days 7 1  
Since 1 June cooling degree days 7 1  
Growing Degree Days 9 (Base 50)    
Moisture  
Dew Point 54 °F    
Average Humidity 86    
Maximum Humidity 100    
Minimum Humidity 72    
Precipitation  
Precipitation 0.92 in 0.13 in 1.25 in (1981)
Month to date precipitation 0.92 0.13  
Year to date precipitation 32.48 22.97  
Sea Level Pressure  
Sea Level Pressure 29.95 in    
Wind  
Wind Speed 8 mph (East)    
Max Wind Speed 16 mph    
Max Gust Speed 22 mph    
Visibility 7 miles    
Events Fog , Rain    
T = Trace of Precipitation, MM = Missing Value Source: NWS Daily Summary

Daily Weather History Graph

Daily Weather History Graph

Search for Another Location

Airport or City:

Trip Planner

Search our weather history database for the weather conditions in past years. The results will help you decide how hot, cold, wet, or windy it might be!

Date:

Astronomy

Jul. 01, 2013 Rise Set
Actual Time 3:57 AM AKDT 10:06 PM AKDT
Civil Twilight 2:41 AM AKDT 11:21 PM AKDT
Nautical Twilight Sun does not rise Sun does not rise
Astronomical Twilight Sun does not rise Sun does not rise
Moon 12:31 AM AKDT (7/1) 3:38 PM AKDT (7/1)
Length of Visible Light 20h 40m
Length of Day
18h 08m
Waning Crescent, 34% of the Moon is Illuminated
Jul 1
Waning Crescent
Jul 7
New
Jul 15
First Quarter
Jul 22
Full
Jul 29
Last Quarter

Hourly Weather History & Observations

Time (AKDT) Temp. Dew Point Humidity Pressure Visibility Wind Dir Wind Speed Gust Speed Precip Events Conditions
12:53 AM 60.1 °F 51.1 °F 72% 29.96 in 10.0 mi East 6.9 mph - N/A   Overcast
1:53 AM 57.9 °F 53.1 °F 84% 29.96 in 10.0 mi Calm Calm - 0.00 in Rain Light Rain
2:53 AM 57.0 °F 54.0 °F 89% 29.94 in 10.0 mi ESE 4.6 mph - 0.01 in   Overcast
3:53 AM 57.9 °F 48.9 °F 72% 29.92 in 10.0 mi WNW 4.6 mph - N/A   Overcast
4:53 AM 55.9 °F 52.0 °F 87% 29.95 in 10.0 mi NE 9.2 mph - N/A   Overcast
5:53 AM 55.0 °F 53.1 °F 93% 29.94 in 9.0 mi Variable 3.5 mph - 0.11 in Rain Light Rain
6:53 AM 55.9 °F 54.0 °F 93% 29.91 in 10.0 mi East 6.9 mph - 0.02 in   Overcast
7:53 AM 55.0 °F 54.0 °F 96% 29.93 in 10.0 mi East 6.9 mph - 0.01 in Rain Light Rain
8:53 AM 55.9 °F 55.0 °F 97% 29.93 in 10.0 mi East 6.9 mph - 0.01 in Rain Light Rain
9:53 AM 57.0 °F 55.0 °F 93% 29.92 in 10.0 mi East 11.5 mph - 0.00 in Rain Light Rain
10:21 AM 57.9 °F 55.0 °F 90% 29.93 in 0.5 mi Variable 5.8 mph - 0.00 in Fog , Rain Rain
10:29 AM 57.0 °F 55.0 °F 93% 29.93 in 2.0 mi Variable 4.6 mph - 0.04 in Rain Rain
10:40 AM 57.0 °F 55.9 °F 96% 29.93 in 3.0 mi ENE 11.5 mph - 0.05 in Rain Light Rain
10:53 AM 55.9 °F 55.0 °F 97% 29.93 in 5.0 mi East 12.7 mph - 0.06 in Rain Light Rain
10:57 AM 55.9 °F 55.0 °F 97% 29.92 in 6.0 mi East 12.7 mph - 0.01 in Rain Light Rain
11:53 AM 57.0 °F 55.0 °F 93% 29.94 in 10.0 mi ENE 8.1 mph - 0.05 in   Overcast
12:53 PM 57.9 °F 55.9 °F 93% 29.94 in 10.0 mi East 12.7 mph - 0.03 in Rain Light Rain
1:21 PM 57.9 °F 55.0 °F 90% 29.95 in 3.0 mi ESE 10.4 mph - 0.00 in Rain Light Rain
1:29 PM 57.0 °F 55.0 °F 93% 29.95 in 1.8 mi ESE 10.4 mph - 0.00 in Rain Light Rain
1:53 PM 55.9 °F 55.0 °F 97% 29.96 in 1.8 mi ESE 10.4 mph - 0.15 in Rain Heavy Rain
2:00 PM 55.9 °F 55.0 °F 97% 29.96 in 2.0 mi East 10.4 mph - 0.03 in Rain Heavy Rain
2:06 PM 55.9 °F 55.0 °F 97% 29.96 in 2.0 mi East 10.4 mph - 0.06 in Rain Light Rain
2:26 PM 57.0 °F 55.9 °F 96% 29.96 in 3.0 mi East 12.7 mph - 0.08 in Rain Light Rain
2:53 PM 57.0 °F 55.0 °F 93% 29.96 in 7.0 mi East 12.7 mph - 0.08 in Rain Light Rain
3:53 PM 57.0 °F 54.0 °F 89% 29.97 in 3.0 mi SE 10.4 mph - 0.06 in Rain Rain
4:27 PM 59.0 °F 54.0 °F 83% 29.97 in 2.5 mi SE 12.7 mph 20.7 mph 0.08 in Rain Heavy Rain
4:31 PM 59.0 °F 54.0 °F 83% 29.97 in 3.0 mi SE 8.1 mph 20.7 mph 0.10 in Rain Rain
4:53 PM 55.9 °F 54.0 °F 93% 29.98 in 4.0 mi East 6.9 mph - 0.11 in Rain Light Rain
5:53 PM 57.0 °F 54.0 °F 89% 29.98 in 2.5 mi East 4.6 mph - 0.05 in Rain Light Rain
6:21 PM 55.9 °F 54.0 °F 93% 29.97 in 5.0 mi ENE 9.2 mph - 0.02 in Rain Light Rain
6:53 PM 55.9 °F 54.0 °F 93% 29.98 in 8.0 mi ENE 6.9 mph - 0.03 in Rain Light Rain
7:53 PM 55.9 °F 54.0 °F 93% 29.97 in 10.0 mi ENE 8.1 mph - 0.00 in   Overcast
8:53 PM 55.9 °F 54.0 °F 93% 29.97 in 10.0 mi ENE 6.9 mph - 0.00 in Rain Light Rain
9:53 PM 55.9 °F 53.1 °F 90% 29.97 in 10.0 mi ENE 8.1 mph - 0.00 in   Overcast
10:53 PM 55.0 °F 53.1 °F 93% 29.98 in 10.0 mi ENE 4.6 mph - 0.00 in   Overcast
11:53 PM 55.0 °F 53.1 °F 93% 29.98 in 10.0 mi East 5.8 mph - 0.00 in Rain Light Rain